Погода в Ореле

Хотите узнать прогноз погоды в Ореле? Тогда Вам сюда: Погода в Ореле

Поиск расширенной информации на нашем сайте:

Полезная информация:

Новости сайта



14.11.2019
Обновлён Долгосрочный прогноз погоды по России и другим странам хСССР на ноябрь-декабрь 2019 года.
Опубликованы прогностические карты: Предварительный прогноз на декабрь 2019 года, Предварительный прогноз на январь 2020 года, Предварительная схема синоптических процессов на декабрь 2019 г..

11.11.2019
Обновлены Долгосрочный прогноз погоды по России и другим странам хСССР на ноябрь-декабрь 2019 года и Предварительный прогноз на зиму 2019/2020 годов

04.11.2019
Опубликован Долгосрочный прогноз погоды по России и другим странам хСССР на ноябрь 2019 года
Сравнение прогнозируемой аномалии приземной температуры воздуха на ноябрь 2019 года по разным моделям
Предварительный прогноз на зиму 2019/2020 года




Погода в Ореле - сегодня

Время (UTC), дата Ветер
(°,м/с) 
Видим.   Явления Облачность Т
(°С)
Тd
(°С)
f(%) Тe
(°С)
Pmin
(гПа)
dP
(гПа)
Po
(мм)
O2
(г/м3)
Тmin Tmax R s Состояние
почвы
00 20.11.19 110 (В) 4000 м  дымка{морось}  10/10 300 м 
[St]
+0.5 -0.1 96 1033.5  0.6  757  304           
03 20.11.19 120 (ЮВ) 4000 м  дымка  10/10 300 м 
[St]
+1.7 +1.1 96 +1  1033.8  0.6  757  303  +0.2    0.0     
06 20.11.19 080 (В) 1000 м  слаб. морось  10/10 300 м 
[St]
+2.3 +1.8 96 +3  1034.8  758  302  +0.2    0.0    влажная 
09 20.11.19 110 (В) 2000 м  дымка{морось, туман}  10/10 300 м 
[St]
+4.3 +3.2 93 +3  1035.5  0.9  758  300           
12 20.11.19 110 (В) 4000 м  дымка{морось, туман}  10/10 300 м 
[St]
+4.7 +3 89 +4  1036.8  1.3  759  300           
15 20.11.19 090 (В) 10 км    10/10 600 м 
[Sc]
+4.3 +2.1 86 +3  1038.6  1.7  761  301      0.0     
18 20.11.19 110 (В) 4000 м  дымка  10/10 600 м 
[Sc]
+1.9 +1.1 94 1040.4  1.5  762  305    +4.9  0.0     
21 20.11.19 110 (В) 3{10}  10 км    10/6 600 м средняя 
[Sc|As op]
+0.2 -1.7 87 -2  1042.2  1.6  763  307           
00 21.11.19 110 (В) 10 км    8/3 600 м средняя 
[Sc|Ac trans]
-3.5 -7.1 76 -6  1044.3  1.7  764  313           
03 21.11.19 110 (В) 4{10}  10 км    4/0 средняя 
[Ac trans]
-5.8 -9.1 77 -9  1045.7  1.2  765  316  -5.8         
06 21.11.19 130 (ЮВ) 3{10}  10 км    10/10 600 м 
[Sc]
-5.6 -9.2 76 -8  1047  1.2  766  316  -6.3        замёрзшая 
09 21.11.19 140 (ЮВ) 5{10}  10 км  {ливн. осадки}  8/8 600 м кучево-дожд. 
[Cb calv]
-5.3 -10.2 68 -9  1047.4  0.4  766  316           
12 21.11.19 140 (ЮВ) 10 км  {ливн. осадки}  1/1 600 м 
[Sc]
-4.8 -10.5 64 -7  1047  -0.4  766  315           
15 21.11.19 120 (ЮВ) 10 км    ясно 
-6.9 -11.4 70 -10  1047.1  0.1  766  318      0.0     
18 21.11.19 120 (ЮВ) 10 км    ясно 
-7.9 -12.3 71 -11  1047.5  0.3  766  319    -4.3  0.0     
21 21.11.19 130 (ЮВ) 10 км    ясно 
-9 -12.7 74 -12  1048  0.4  767  321           
00 22.11.19 130 (ЮВ) 10 км    ясно 
-9.8 -13.3 76 -13  1047.7  -0.4  766  321           
03 22.11.19 120 (ЮВ) 10 км    ясно 
-10.7 -13.8 78 -13  1047.6  -0.2  766  323  -10.7         
06 22.11.19 110 (В) 10 км    4/0 верхняя 
[Ci fib]
-10.5 -14 75 -12  1047.8  0.3  766  322  -11.3        замёрзшая 
09 22.11.19 140 (ЮВ) 10 км    8/0 верхняя 
[Ci fib]
-5.6 -12.8 57 -8  1047.3  766  316           
12 22.11.19 110 (В) 10 км    9/0 верхняя 
[Ci sp]
-4.5 -12.1 55 -7  1045.4  -1.8  765  315           
15 22.11.19 120 (ЮВ) 10 км    8/0 верхняя 
[Ci fib]
-6.8 -12 66 -8  1045  -0.5  765  317           
18 22.11.19 120 (ЮВ) 10 км    ясно 
-8.1 -11.8 75 -11  1044.5  -0.6  764  318    -4       
21 22.11.19 120 (ЮВ) 10 км    ясно 
-9.4 -12.8 76 -9  1045  0.3  764  320           
00 23.11.19 120 (ЮВ) 10 км    ясно 
-9.9 -13 78 -12  1044.2  -0.8  764  321           
Время (UTC), дата Ветер
(°,м/с) 
Видим.   Явления Облачность Т
(°С)
Тd
(°С)
f(%) Тe
(°С)
Pmin
(гПа)
dP
(гПа)
Po
(мм)
O2
(г/м3)
Тmin Tmax R s Состояние
почвы

Для получения пояснительной информации подведите курсор к названию столбца.

ПОГОДА в Ореле - архив

Всё, что Вы хотите узнать о погоде в Ореле - удобно и подробно!

Выберите нужную дату (начиная с 1 января 2019* года) и нажмите кнопку "Найти".
Будут отображены архивные сводки погоды по пункту Орел, начиная с указанной даты.


Отображать данные в формате CSV (для использования в таблицах Excel)


Внимание! Наш архив погоды предназначен исключительно для личного некоммерческого использования в познавательных целях. Если Вам необходимы официальные справки о состоянии погоды (для производственных, юридических, коммерческих и т.п. целей), обращайтесь в органы Росгидромета.

*Примечание: данная дата относится к архиву по метеостанциям СССР (Россия, СНГ, Балтия).
Архив по метеостанциям Зарубежной Европы и Азии (кроме Китая) хранится 10 дней, по другим регионам земного шара (Китай, Африка, Америка, Австралия, Океания) - 1 день.

Орел - район местоположения метеостанции


Название, широта, долгота, высота метеостанции:
Орел 52.9°ш. 36°д. 196 м над ур. моря [Российская Федерация]

Дополнительная информация

В oтличие oт бoльшинства пoгoдных сайтoв мы публикуем пoдрoбную метеoинфoрмацию в детальнoм прoфессиoнальнoм фoрмате.

Характеристики температуры и влажнoсти вoздуха измеряются на высoте 2 м в тени вдали oт зданий и деревьев.
Скoрoсть ветра измеряется на высoте 10 м (на урoвне рoста челoвека скoрoсть ветра ниже в 1.5-2 раза). Если метеoстанция нахoдится в гoрoде или в лесу, тo скoрoсть ветра занижена на 2-4 м/с пo сравнению с oткрытым местoм. Скoрoсть ветра над акватoриями крупных рек и oзёр, а также на вершинах хoлмoв на 2-5 м/с выше, чем в oбычных услoвиях.
Атмoсфернoе давление в разных тoчках местнoсти мoжет значительнo oтличаться oт давления на метеoстанции, в зависимoсти oт услoвий рельефа (при пoдъёме на 10 м давление пoнижается примернo на 1 мм рт.ст.).